Regional Weather Roundup
Issued by NWS Green Bay, WI

Home | Current Version | Previous Version | Text Only | Print | Product List | Glossary On
Versions: 1 2 3 4 5 6 7 8 9 10 11 12 13 14 15 16 17 18 19 20 21 22 23 24 25 26 27 28 29 30 31 32 33 34 35 36 37 38 39 40 41 42 43 44 45 46 47 48 49 50
000
ASUS43 KGRB 221311
RWRGRB

NORTH-CENTRAL AND NORTHEAST WISCONSIN REGIONAL WEATHER ROUNDUP
NATIONAL WEATHER SERVICE GREEN BAY WI
800 AM CDT SAT JUL 22 2017

WIZ005-009-010>012-018-019-221400-
NORTH CENTRAL WISCONSIN

CITY           SKY/WX    TMP DP  RH WIND       PRES   REMARKS
IRONWOOD       CLOUDY    67  65  93 W5        29.85R
MANITOWISH WTR CLOUDY    68  68 100 SW5       29.85S
ARBOR VITAE    PTSUNNY   69  68  94 W3        29.86R
EAGLE RIVER    CLOUDY    67  60  79 CALM      29.86R
LAND O LAKES   CLOUDY    70  62  77 CALM      29.88S
RHINELANDER    CLOUDY    65  64  97 CALM      29.87R
PHILLIPS       CLOUDY    66  66 100 W5        29.86R
ANTIGO         CLOUDY    65  63  95 CALM      29.87R
TOMAHAWK         N/A     65  64  95 CALM      29.86F FOG
MERRILL        DRZL/FOG  65  65 100 NE3       29.86R VSB 1
$$

WIZ013-073-221400-
NORTHEAST WISCONSIN

CITY           SKY/WX    TMP DP  RH WIND       PRES   REMARKS
IRON MOUNTAIN  CLOUDY    68  61  78 SW3       29.85R
MARINETTE      CLOUDY    70  63  78 E3        29.84R
OCONTO         CLOUDY    69  64  83 CALM      29.83R
$$

WIZ017-030-035>037-045-221400-
CENTRAL WISCONSIN

CITY           SKY/WX    TMP DP  RH WIND       PRES   REMARKS
MEDFORD        CLOUDY    66  66  98 CALM      29.86S FOG
WAUSAU         FOG       66  66 100 CALM      29.84R VSB 1
MOSINEE        FOG       66  66 100 NE3       29.87R VSB 1/4
MARSHFIELD     CLOUDY    68  67  96 N5        29.84R FOG
WISC RAPIDS    FOG       67  66  97 CALM      29.86R VSB 3/4
STEVENS POINT  CLOUDY    64  64 100 NE3       29.86R FOG
WAUPACA        CLOUDY    70  65  86 CALM      29.84R
SHAWANO        CLOUDY    70  60  70 CALM      29.84S
CLINTONVILLE   CLOUDY    68  59  73 CALM      29.84R
WAUTOMA        CLOUDY    66  65  96 N5        29.83S FOG
$$

WIZ038-039-048-051-221400-
FOX VALLEY

CITY           SKY/WX    TMP DP  RH WIND       PRES   REMARKS
NWS GREEN BAY  CLOUDY    69  66  90 N3        29.82S
APPLETON       CLOUDY    68  57  68 VRB3      29.80F
OSHKOSH        CLOUDY    68  63  84 CALM      29.81S
FOND DU LAC    CLOUDY    67  63  87 CALM      29.82R FOG
$$

WIZ022-050-052-221400-
EAST CENTRAL WISCONSIN

CITY           SKY/WX    TMP DP  RH WIND       PRES   REMARKS
EPHRAIM        CLOUDY    68  62  83 SE3       29.83S
WASHINGTON ISL CLOUDY    68  63  82 CALM      29.84R
STURGEON BAY     N/A     69  64  84 SE5       29.85R
MANITOWOC      CLOUDY    70  64  81 E7        29.83R
SHEBOYGAN      CLOUDY    69  68  96 NE3       29.81S FOG
$$

LMZ563-521-522-541>543-221400-
LAKESHORE

STATION/POSITION TIME  TEMP    WIND        PRES    VSBY  WAVE
                       AIR SEA DIR/SP/G                  HT/PER
                 (UTC) (F)     (DEG/KT/KT) (MB)    (MI)  (FT/S)
SHEBOYGAN LKSHOR 1300   67      30/  1/  1 1009.0R
KEWAUNEE LKSHORE 1248   69      CALM  /  4 1008.9R
NORTHPORT PIER   1240   69     190/  1/  3 1010.2R
N MID LAKE BUOY  1250   67 66   50/  2/  2 1011.0R         1
S GREEN BAY BUOY 1300   70 73   90/  2/  4 1010.1
SISTER BAY LKSHO 1302   70        CALM       N/A
CHAMBERS ISLAND  1230   70     120/  2/  5 1009.5R
MENOMINEE LKSHOR 1248   70     100/  3/  4 1010.1R
$$



USA.gov is the U.S. government's official web portal to all federal, state and local government web resources and services.